Location: *
(37.5724°S, 58.0067°E)
Time: 04:21:20
(UTC+00:00)

NOSS 3-1 (A) - Pass Details

Date: 27 June 2021
Orbit: 729 x 1483 km, 63.4° (Epoch: 23 July)

Event Time Altitude Azimuth Distance (km) Brightness Sun altitude
Rises 16:34:40 0° 223° (SW) 3,643 7.0 -41.9°
Reaches altitude 10° 16:37:45 10° 235° (SW) 2,573 6.2 -42.5°
Enters shadow 16:39:34 17° 248° (WSW) 2,023 5.6 -42.9°
